STARLINK-34458

Last updated on Thu Jul 03 2025 00:02:06 GMT+0000 (Coordinated Universal Time)

1 64360U 25126S 25183.58335648 -.01413565 00000+0 -17090-1 0 9990 2 64360 69.9997 310.2024 0003305 271.8684 321.7714 15.63228236 4321
UTC large
Height (km)
Speed (km/s)
/
Latitude / Longitude
Inclination (degrees)
Orbital Period (minutes)
Azimuth
Elevation
Range (km)
Doppler Factor

Next 0 passes for location: London (51.5072 / 0.1276)

Sorry there are no passes over London.